Location: Dampvalley
(47.9094°N, 6.1967°E)
Time: 01:48:37
(UTC+00:00)

N. Korean satellite - Pass Details

Date: 08 December 2022
Orbit: 408 x 444 km, 97.3° (Epoch: 28 January)

Event Time Altitude Azimuth Distance (km) Brightness Sun altitude
Rises 05:28:04 0° 6° (N) 2,509 10.1 -16.5°
Reaches altitude 10° 05:30:12 10° 359° (N) 1,621 9.0 -16.1°
Maximum altitude 05:33:29 40° 289° (WNW) 685 6.8 -15.6°
Drops below altitude 10° 05:36:41 10° 218° (SW) 1,581 9.0 -15.1°
Sets 05:38:45 0° 211° (SSW) 2,437 10.0 -14.8°
